Weather History for Thermal, CA

Change the Weather History Date:

Thursday, February 14, 2013

  Actual Average Record
Temperature  
Mean Temperature 59 °F 58 °F  
Max Temperature 81 °F 75 °F 90 °F (1957)
Min Temperature 37 °F 41 °F 26 °F (1966)
Degree Days  
Heating Degree Days 6 8  
Month to date heating degree days 119 119  
Since 1 July heating degree days 946 979  
Cooling Degree Days 0 0  
Month to date cooling degree days 0 0  
Year to date cooling degree days 0 2  
Growing Degree Days 9 (Base 50)    
Moisture  
Dew Point 26 °F    
Average Humidity 40    
Maximum Humidity 70    
Minimum Humidity 10    
Precipitation  
Precipitation 0.00 in 0.03 in 1.04 in (1980)
Month to date precipitation T 0.30  
Year to date precipitation 0.37 0.97  
Since 1 July precipitation 2.55 2.35  
Snow  
Snow 0.00 in - - ()
Month to date snowfall 0.0  
Year to date snowfall 0.0  
Since 1 July snowfall 0.0  
Snow Depth 0.00 in    
Sea Level Pressure  
Sea Level Pressure 30.11 in    
Wind  
Wind Speed 5 mph (NNW)    
Max Wind Speed 14 mph    
Max Gust Speed 17 mph    
Visibility 10 miles    
Events      
T = Trace of Precipitation, MM = Missing Value Source: NWS Daily Summary

Daily Weather History Graph

Daily Weather History Graph

Search for Another Location

Airport:

Trip Planner

Search our weather history database for the weather conditions in past years. The results will help you decide how hot, cold, wet, or windy it might be!

Date:

Astronomy

Feb. 14, 2013 Rise Set
Actual Time 6:29 AM PST 5:28 PM PST
Civil Twilight 6:04 AM PST 5:54 PM PST
Nautical Twilight 5:34 AM PST 6:23 PM PST
Astronomical Twilight 5:05 AM PST 6:52 PM PST
Moon 8:50 AM PST (2/14) 10:17 PM PST (2/14)
Length of Visible Light 11h 50m
Length of Day
10h 59m
Waxing Crescent, 22% of the Moon is Illuminated
Feb 14
Waxing Crescent
Feb 17
First Quarter
Feb 25
Full
Mar 4
Last Quarter
Mar 11
New

Hourly Weather History & Observations

Time (PST) Temp. Windchill Dew Point Humidity Pressure Visibility Wind Dir Wind Speed Gust Speed Precip Events Conditions
12:52 AM 46.0 °F 43.9 °F 28.0 °F 50% 30.13 in 10.0 mi North 4.6 mph - N/A   Clear
1:52 AM 39.0 °F 36.8 °F 27.0 °F 62% 30.12 in 10.0 mi North 3.5 mph - N/A   Clear
2:52 AM 48.0 °F - 30.0 °F 50% 30.11 in 10.0 mi North 5.8 mph - N/A   Clear
3:52 AM 48.0 °F - 30.0 °F 50% 30.10 in 10.0 mi North 8.1 mph - N/A   Clear
4:52 AM 42.1 °F 39.2 °F 30.0 °F 62% 30.10 in 10.0 mi WNW 4.6 mph - N/A   Clear
5:52 AM 39.9 °F 36.7 °F 30.0 °F 68% 30.11 in 10.0 mi NW 4.6 mph - N/A   Clear
6:52 AM 37.9 °F - 28.0 °F 68% 30.12 in 10.0 mi Calm Calm - N/A   Clear
7:52 AM 48.0 °F - 32.0 °F 54% 30.14 in 10.0 mi Calm Calm - N/A   Clear
8:52 AM 62.1 °F - 32.0 °F 32% 30.15 in 10.0 mi North 5.8 mph - N/A   Clear
9:52 AM 66.9 °F - 30.9 °F 26% 30.17 in 10.0 mi Calm Calm - N/A   Clear
10:52 AM 73.0 °F - 28.9 °F 20% 30.16 in 10.0 mi Variable 3.5 mph - N/A   Clear
11:52 AM 78.1 °F - 25.0 °F 14% 30.12 in 10.0 mi WNW 6.9 mph - N/A   Clear
12:52 PM 78.1 °F - 23.0 °F 13% 30.08 in 10.0 mi NW 8.1 mph - N/A   Clear
1:52 PM 81.0 °F - 21.9 °F 11% 30.06 in 10.0 mi North 9.2 mph - N/A   Clear
2:52 PM 80.1 °F - 19.9 °F 11% 30.04 in 10.0 mi NW 6.9 mph - N/A   Clear
3:52 PM 81.0 °F - 19.9 °F 10% 30.04 in 10.0 mi North 9.2 mph - N/A   Clear
4:52 PM 77.0 °F - 21.9 °F 13% 30.04 in 10.0 mi North 6.9 mph - N/A   Clear
5:52 PM 70.0 °F - 23.0 °F 17% 30.06 in 10.0 mi North 5.8 mph - N/A   Clear
6:52 PM 71.1 °F - 23.0 °F 16% 30.08 in 10.0 mi North 8.1 mph - N/A   Clear
7:52 PM 62.1 °F - 25.0 °F 24% 30.11 in 10.0 mi NW 4.6 mph - N/A   Clear
8:52 PM 55.9 °F - 26.1 °F 32% 30.14 in 10.0 mi Variable 3.5 mph - N/A   Clear
9:52 PM 53.1 °F - 26.1 °F 35% 30.15 in 10.0 mi North 3.5 mph - N/A   Clear
10:52 PM 57.0 °F - 26.1 °F 30% 30.17 in 10.0 mi North 6.9 mph - N/A   Clear
11:52 PM 53.1 °F - 27.0 °F 37% 30.17 in 10.0 mi NNW 4.6 mph - N/A   Clear